This is the latest recevied weather packets stored in our database for station/object KX4O-13. If no packets are shown the sender has not sent any weather packets the latest 10 day(s).
| Time | Temp. | Humidity | Pressure | Rain* | Wind** | Luminosity | Snow |
|---|---|---|---|---|---|---|---|
| 1777830056 | 15° C | 37% | 1016.7 hPa | 0 mm | - | 940 W/m² | - |
| 1777829756 | 15° C | 38% | 1016.7 hPa | 0 mm | - | 928 W/m² | - |
| 1777829456 | 15° C | 37% | 1016.7 hPa | 0 mm | - | 932 W/m² | - |
| 1777829156 | 13.89° C | 38% | 1016.7 hPa | 0 mm | - | 939 W/m² | - |
| 1777828856 | 13.89° C | 37% | 1016.8 hPa | 0 mm | - | 995 W/m² | - |
| 1777828556 | 14.44° C | 39% | 1016.9 hPa | 0 mm | - | 977 W/m² | - |
| 1777828256 | 13.89° C | 39% | 1017 hPa | 0 mm | - | 1013 W/m² | - |
| 1777827956 | 13.89° C | 36% | 1017 hPa | 0 mm | - | 965 W/m² | - |
| 1777827656 | 13.89° C | 36% | 1017 hPa | 0 mm | - | 956 W/m² | - |
| 1777827356 | 13.89° C | 36% | 1017.1 hPa | 0 mm | - | 965 W/m² | - |
| 1777827056 | 14.44° C | 38% | 1017.1 hPa | 0 mm | - | 1032 W/m² | - |
| 1777826756 | 12.78° C | 40% | 1017.1 hPa | 0 mm | - | 1021 W/m² | - |
| 1777826456 | 12.78° C | 39% | 1017.2 hPa | 0 mm | - | 939 W/m² | - |
| 1777826156 | 13.33° C | 38% | 1017.2 hPa | 0 mm | - | 1000 W/m² | - |
| 1777825856 | 13.33° C | 37% | 1017.3 hPa | 0 mm | - | 255 W/m² | - |
| 1777825556 | 13.33° C | 38% | 1017.3 hPa | 0 mm | - | 919 W/m² | - |
| 1777825256 | 13.33° C | 40% | 1017.4 hPa | 0 mm | - | 881 W/m² | - |
| 1777824956 | 12.78° C | 42% | 1017.5 hPa | 0 mm | - | 909 W/m² | - |
| 1777824656 | 12.22° C | 37% | 1017.5 hPa | 0 mm | - | 211 W/m² | - |
| 1777824356 | 12.78° C | 40% | 1017.6 hPa | 0 mm | - | 993 W/m² | - |
| 1777824056 | 12.22° C | 41% | 1017.7 hPa | 0 mm | - | 930 W/m² | - |
| 1777823756 | 12.78° C | 41% | 1017.7 hPa | 0 mm | - | 984 W/m² | - |
| 1777823456 | 12.22° C | 42% | 1017.8 hPa | 0 mm | - | 984 W/m² | - |
| 1777823156 | 11.67° C | 42% | 1017.7 hPa | 0 mm | - | 937 W/m² | - |
| 1777822856 | 11.11° C | 43% | 1017.9 hPa | 0 mm | - | 165 W/m² | - |
* Rain latest hour (hover to see other rain measurements)
** Current wind speed in m/s (hover to see current wind gust speed)